Las Cruces, NM

8:56 AM MDT on June 29, 2017 (GMT -0600)
Las Cruces International

Weather History for KLRU - April, 2014

Change the Weather History Date:

Wednesday, April 23, 2014

  Actual Average Record
Temperature  
Mean Temperature 70 °F -  
Max Temperature 82 °F 75 °F 89 °F (2006)
Min Temperature 57 °F 47 °F 24 °F (2009)
Cooling Degree Days 4    
Growing Degree Days 20 (Base 50)    
Moisture  
Dew Point 20 °F    
Average Humidity 15    
Maximum Humidity 26    
Minimum Humidity 9    
Precipitation  
Precipitation 0.00 in - - ()
Sea Level Pressure  
Sea Level Pressure 29.88 in    
Wind  
Wind Speed 14 mph (West)    
Max Wind Speed 29 mph    
Max Gust Speed 41 mph    
Visibility 10 miles    
Events      
Averages and records for this station are not official NWS values.
T = Trace of Precipitation, MM = Missing Value Source: NWS Daily Summary

Daily Weather History Graph

Daily Weather History Graph

Search for Another Location

Airport or City:

Trip Planner

Search our weather history database for the weather conditions in past years. The results will help you decide how hot, cold, wet, or windy it might be!

Date:

Astronomy

Apr. 23, 2014 Rise Set
Actual Time 6:29 AM MDT 7:42 PM MDT
Civil Twilight 6:03 AM MDT 8:08 PM MDT
Nautical Twilight 5:33 AM MDT 8:39 PM MDT
Astronomical Twilight 5:01 AM MDT 9:10 PM MDT
Moon 2:42 AM MDT (4/23) 2:14 PM MDT (4/23)
Length of Visible Light 14h 04m
Length of Day
13h 13m
Waning Crescent, 34% of the Moon is Illuminated
Apr 23
Waning Crescent
Apr 29
New
May 6
First Quarter
May 14
Full
May 21
Last Quarter

Hourly Weather History & Observations

Time (MDT) Temp. Dew Point Humidity Pressure Visibility Wind Dir Wind Speed Gust Speed Precip Events Conditions
12:15 AM 68.0 °F 20.7 °F 17% 29.88 in 10.0 mi WSW 8.1 mph - N/A   Clear
12:35 AM 68.5 °F 23.0 °F 18% 29.88 in 10.0 mi West 15.0 mph 19.6 mph N/A   Clear
12:55 AM 70.7 °F 23.5 °F 17% 29.88 in 10.0 mi West 15.0 mph - N/A   Clear
1:15 AM 69.6 °F 23.5 °F 18% 29.88 in 10.0 mi West 12.7 mph - N/A   Clear
1:35 AM 68.4 °F 23.5 °F 18% 29.87 in 10.0 mi West 12.7 mph - N/A   Clear
1:55 AM 68.0 °F 23.0 °F 18% 29.87 in 10.0 mi West 13.8 mph - N/A   Clear
2:15 AM 67.5 °F 23.0 °F 19% 29.87 in 10.0 mi West 12.7 mph - N/A   Clear
2:35 AM 66.7 °F 23.0 °F 19% 29.86 in 10.0 mi West 13.8 mph - N/A   Clear
2:55 AM 67.1 °F 23.0 °F 19% 29.86 in 10.0 mi West 11.5 mph - N/A   Clear
3:15 AM 65.3 °F 23.0 °F 20% 29.86 in 10.0 mi West 10.4 mph - N/A   Clear
3:35 AM 64.8 °F 23.4 °F 21% 29.87 in 10.0 mi WSW 9.2 mph - N/A   Clear
3:55 AM 63.5 °F 23.0 °F 21% 29.87 in 10.0 mi West 6.9 mph - N/A   Scattered Clouds
4:15 AM 61.5 °F 23.4 °F 23% 29.87 in 10.0 mi SW 6.9 mph - N/A   Scattered Clouds
4:35 AM 60.3 °F 23.5 °F 24% 29.88 in 10.0 mi SW 9.2 mph - N/A   Scattered Clouds
4:55 AM 60.8 °F 23.0 °F 23% 29.88 in 10.0 mi WSW 8.1 mph - N/A   Clear
5:15 AM 57.0 °F 22.6 °F 26% 29.88 in 10.0 mi West 10.4 mph - N/A   Clear
5:35 AM 61.9 °F 22.1 °F 22% 29.88 in 10.0 mi WSW 11.5 mph - N/A   Clear
5:55 AM 60.6 °F 22.1 °F 23% 29.88 in 10.0 mi WSW 12.7 mph - N/A   Clear
6:15 AM 63.5 °F 23.0 °F 21% 29.88 in 10.0 mi WSW 12.7 mph - N/A   Clear
6:35 AM 61.5 °F 22.8 °F 23% 29.90 in 10.0 mi WSW 9.2 mph - N/A   Clear
6:55 AM 59.9 °F 22.8 °F 24% 29.90 in 10.0 mi West 5.8 mph - N/A   Clear
7:15 AM 60.6 °F 23.0 °F 24% 29.92 in 10.0 mi West 5.8 mph - N/A   Clear
7:35 AM 62.2 °F 23.7 °F 23% 29.93 in 10.0 mi West 6.9 mph - N/A   Clear
7:55 AM 63.5 °F 25.3 °F 23% 29.94 in 10.0 mi West 9.2 mph - N/A   Clear
8:15 AM 65.3 °F 26.4 °F 23% 29.94 in 10.0 mi WSW 10.4 mph - N/A   Clear
8:35 AM 66.2 °F 27.3 °F 23% 29.94 in 10.0 mi West 10.4 mph - N/A   Clear
8:55 AM 67.3 °F 27.5 °F 22% 29.95 in 10.0 mi West 8.1 mph 17.3 mph N/A   Clear
9:15 AM 69.8 °F 27.5 °F 21% 29.95 in 10.0 mi West 13.8 mph 20.7 mph N/A   Clear
9:35 AM 70.2 °F 26.2 °F 19% 29.94 in 10.0 mi WSW 18.4 mph 23.0 mph N/A   Clear
9:55 AM 70.3 °F 26.6 °F 20% 29.94 in 10.0 mi WSW 13.8 mph 18.4 mph N/A   Clear
10:15 AM 73.0 °F 23.0 °F 15% 29.93 in 10.0 mi WSW 20.7 mph 28.8 mph N/A   Clear
10:35 AM 74.1 °F 21.4 °F 14% 29.92 in 10.0 mi SW 25.3 mph 29.9 mph N/A   Clear
10:55 AM 74.1 °F 21.0 °F 14% 29.92 in 10.0 mi WSW 17.3 mph 35.7 mph N/A   Clear
11:15 AM 74.5 °F 21.0 °F 13% 29.92 in 10.0 mi SW 16.1 mph 29.9 mph N/A   Clear
11:35 AM 76.1 °F 19.8 °F 12% 29.92 in 10.0 mi WSW 20.7 mph 26.5 mph N/A   Clear
12:15 PM 77.4 °F 16.7 °F 10% 29.90 in 10.0 mi West 18.4 mph 27.6 mph N/A   Clear
12:35 PM 78.1 °F 16.5 °F 10% 29.88 in 10.0 mi WSW 19.6 mph 32.2 mph N/A   Clear
12:55 PM 78.8 °F 16.2 °F 9% 29.88 in 10.0 mi SW 23.0 mph 27.6 mph N/A   Clear
1:15 PM 79.3 °F 15.6 °F 9% 29.87 in 10.0 mi West 19.6 mph 31.1 mph N/A   Clear
1:55 PM 80.6 °F 16.0 °F 9% 29.86 in 10.0 mi WSW 23.0 mph 29.9 mph N/A   Clear
2:15 PM 80.8 °F 16.9 °F 9% 29.85 in 10.0 mi WSW 12.7 mph 29.9 mph N/A   Clear
2:35 PM 80.8 °F 16.9 °F 9% 29.84 in 10.0 mi West 25.3 mph 31.1 mph N/A   Clear
2:55 PM 81.9 °F 17.4 °F 9% 29.83 in 10.0 mi West 20.7 mph 33.4 mph N/A   Clear
3:15 PM 81.3 °F 18.5 °F 10% 29.83 in 10.0 mi WSW 23.0 mph 34.5 mph N/A   Clear
3:35 PM 82.0 °F 18.9 °F 10% 29.81 in 10.0 mi WSW 21.9 mph 29.9 mph N/A   Clear
3:55 PM 82.2 °F 18.0 °F 9% 29.81 in 10.0 mi WSW 27.6 mph 31.1 mph N/A   Clear
4:15 PM 82.0 °F 18.3 °F 9% 29.80 in 10.0 mi West 27.6 mph 41.4 mph N/A   Clear
4:35 PM 81.7 °F 18.0 °F 9% 29.80 in 10.0 mi West 28.8 mph 35.7 mph N/A   Clear
4:55 PM 81.5 °F 19.2 °F 10% 29.80 in 10.0 mi West 25.3 mph 31.1 mph N/A   Clear
5:15 PM 81.1 °F 18.5 °F 10% 29.79 in 10.0 mi West 26.5 mph 32.2 mph N/A   Clear
5:35 PM 81.3 °F 19.2 °F 10% 29.79 in 10.0 mi West 27.6 mph 35.7 mph N/A   Clear
5:55 PM 80.4 °F 19.4 °F 10% 29.80 in 10.0 mi West 26.5 mph 34.5 mph N/A   Clear
6:15 PM 80.1 °F 19.0 °F 10% 29.80 in 10.0 mi West 27.6 mph 36.8 mph N/A   Clear
6:35 PM 79.2 °F 19.0 °F 11% 29.80 in 10.0 mi West 25.3 mph 36.8 mph N/A   Clear
6:55 PM 77.9 °F 19.9 °F 11% 29.81 in 10.0 mi West 19.6 mph 31.1 mph N/A   Clear
7:15 PM 76.5 °F 20.5 °F 12% 29.82 in 10.0 mi West 21.9 mph 31.1 mph N/A   Clear
7:35 PM 75.2 °F 20.3 °F 13% 29.82 in 10.0 mi West 23.0 mph 32.2 mph N/A   Clear
7:55 PM 74.1 °F 20.8 °F 14% 29.83 in 10.0 mi West 25.3 mph 32.2 mph N/A   Clear
8:15 PM 73.4 °F 20.1 °F 13% 29.84 in 10.0 mi West 24.2 mph 33.4 mph N/A   Clear
8:35 PM 72.5 °F 19.8 °F 14% 29.85 in 10.0 mi West 23.0 mph 27.6 mph N/A   Clear
8:55 PM 72.0 °F 17.6 °F 13% 29.86 in 10.0 mi West 19.6 mph 28.8 mph N/A   Clear
9:15 PM 71.2 °F 16.5 °F 12% 29.88 in 10.0 mi West 23.0 mph 31.1 mph N/A   Clear
9:35 PM 70.3 °F 15.8 °F 12% 29.90 in 10.0 mi WNW 13.8 mph 24.2 mph N/A   Clear
9:55 PM 69.1 °F 15.4 °F 13% 29.90 in 10.0 mi WNW 10.4 mph - N/A   Clear
10:15 PM 68.2 °F 15.1 °F 13% 29.91 in 10.0 mi WNW 11.5 mph 17.3 mph N/A   Clear
10:35 PM 67.3 °F 14.9 °F 13% 29.92 in 10.0 mi WNW 10.4 mph - N/A   Clear
10:55 PM 65.8 °F 14.0 °F 13% 29.93 in 10.0 mi West 11.5 mph - N/A   Clear
11:15 PM 65.7 °F 12.2 °F 13% 29.94 in 10.0 mi WNW 9.2 mph - N/A   Clear
11:35 PM 65.8 °F 11.5 °F 12% 29.93 in 10.0 mi West 15.0 mph 24.2 mph N/A   Clear
11:55 PM 65.5 °F 10.8 °F 12% 29.94 in 10.0 mi WNW 15.0 mph - N/A   Clear